www.pogodaiklimat.ru

Погода и климат >> Архив погоды >> Россия >> город Москва >> Москва


АРХИВ ПОГОДЫ в Москве

Время (UTC), дата Ветер
(напр.,м/с)
 
Видим.   Явления Облачность Т
(С)
Тd
(С)
f
(%)
Тe
(С)
Тes
(С)
Комфортность P
(гПа)
Po
(гПа)
Тmin
(С)
Tmax
(С)
R
(мм)
R24
(мм)
S
(см)
21 8.12 Ю 1 н/о 10/10 600 м
[Frnb]
-4.0 -6.0 86 -6 -6 по сезону 1013.4 993.3
00 9.12 Ю 2 н/о дымка 10/10 200 м
[Frnb]
-4.2 -5.8 89 -8 -8 по сезону 1012.9 992.8
03 9.12 ЮВ 2 н/о дымка 10/10 300 м
[Frnb]
-4.7 -6.2 89 -9 -9 по сезону 1011.4 991.3 -4.8
06 9.12 Ю 2 4000 м слабый снег 10/10 300 м
[Frnb]
-4.4 -5.7 91 -9 -9 по сезону 1010.9 990.8 -4.8 0.2 14
09 9.12 Ю 2 4000 м слабый снег 10/10 300 м
[Frnb Ns]
-3.8 -5.6 87 -8 -8 по сезону 1010.1 990.1
12 9.12 Ю 2 4000 м слабый снег 10/10 300 м
[Frnb Ns]
-3.5 -5.0 89 -8 -8 по сезону 1008.9 989.0
15 9.12 ЮВ 1 н/о слабый снег 10/10 300 м
[Frnb Ns]
-3.4 -4.8 90 -6 -6 по сезону 1008.1 988.1 3
18 9.12 ЮВ 1 н/о слабый снег 10/10 300 м
[Frnb Ns]
-3.1 -4.0 93 -5 -5 по сезону 1007.0 987.1 -3.1 3
21 9.12 ЮВ 1 н/о слабый снег 10/10 200 м
[Frnb Ns]
-2.2 -3.0 94 -5 -5 по сезону 1006.3 986.5
00 10.12 ЮВ 1 н/о слабый снег 10/10 200 м
[Frnb Ns]
-1.1 -1.7 96 -3 -3 по сезону 1005.4 985.7
03 10.12 Ю 1 н/о слабый снег 10/10 200 м
[Frnb Ns]
+0.2 -0.5 95 -2 -2 по сезону 1004.6 985.0 -3.1 2
06 10.12 штиль 0 4000 м в посл. час снег 10/10 300 м
[Frnb Ns]
+0.8 +0.1 95 -1 -1 тепло 1005.2 985.7 -3.1 2 17
09 10.12 Ю 1 4000 м дымка {снег} 10/10 300 м
[Frnb]
+1.5 -0.1 89 -0 -0 тепло 1006.1 986.6
12 10.12 Ю 1 4000 м дымка {снег} 10/10 300 м
[Frnb]
+1.0 -0.2 92 -1 -1 по сезону 1007.8 988.2
15 10.12 Ю 2 н/о дымка 10/10 300 м
[Frnb]
+1.1 -0.3 90 -2 -2 по сезону 1009.3 989.7 1
18 10.12 ЮВ 1 н/о дымка 10/10 300 м
[Frnb]
+1.0 -0.3 91 -1 -1 тепло 1010.2 990.5 +1.6 0.4
21 10.12 Ю 2 н/о дымка 10/10 200 м
[Frnb]
+1.0 -0.3 91 -3 -3 по сезону 1010.8 991.1
00 11.12 ЮВ 1 н/о слабый снег 10/10 200 м
[Frnb Ns]
+0.5 -0.1 96 -2 -2 тепло 1010.5 990.8
03 11.12 ЮВ 1 н/о слабый снег 10/10 200 м
[Frnb Ns]
+0.2 -0.1 98 -2 -2 тепло 1010.0 990.3 +0.2 3
06 11.12 ЮВ 1 2000 м слабый снег 10/10 200 м
[Frnb Ns]
+0.3 0.0 98 -2 -2 тепло 1010.2 990.5 +0.2 5 15
09 11.12 ЮВ 2 4000 м слабый снег 10/10 200 м
[Frnb Ns]
+0.7 -0.1 94 -3 -3 по сезону 1010.9 991.2
12 11.12 ЮВ 1 4000 м слабый снег 10/10 200 м
[Frnb Ns]
+0.8 +0.2 96 -1 -1 тепло 1011.8 992.2
15 11.12 Ю 1 н/о дымка {снег} 10/10 300 м
[Frnb]
+1.0 +0.3 95 -1 -1 тепло 1013.4 993.7 3
18 11.12 штиль 0 н/о дымка {снег} 10/10 300 м
[Frnb]
+0.8 +0.2 96 -1 -1 тепло 1015.0 995.3 +1.1 0.7
21 11.12 ЮЗ 1 н/о дымка 10/10 600 м
[Sc]
+0.9 +0.2 95 -1 -1 тепло 1016.9 997.1
00 12.12 штиль 0 н/о дымка 10/10 600 м
[Sc]
+0.5 -0.1 96 -1 -1 тепло 1017.8 998.0
03 12.12 С 1 н/о дымка 10/10 600 м
[Sc]
+0.5 +0.1 97 -2 -2 тепло 1018.1 998.2 +0.3
06 12.12 штиль 0 2000 м дымка 10/10 300 м
[Frnb]
+0.3 +0.2 99 -1 -1 тепло 1018.9 999.0 +0.3 14
09 12.12 С 1 4000 м дымка 10/10 300 м
[St]
+1.1 +0.1 93 -1 -1 тепло 1019.3 999.5
12 12.12 С 1 4000 м дымка 10/10 300 м
[Frnb]
+0.9 -0.4 91 -1 -1 тепло 1019.0 999.2
15 12.12 СВ 2 н/о в посл. час снег 10/10 300 м
[Frnb]
+0.6 -2.1 82 -3 -3 по сезону 1019.6 999.7 0.1
18 12.12 С 2 н/о {снег} 10/10 600 м
[Sc]
+0.1 -1.8 87 -4 -4 по сезону 1019.4 999.5 +1.2 0.1
21 12.12 С 3 н/о дымка 10/10 600 м
[Sc]
0.0 -1.7 88 -5 -5 по сезону 1019.4 999.5
00 13.12 СВ 3 н/о слабый снег 10/10 300 м
[Frnb Ns]
-0.3 -0.8 96 -5 -5 по сезону 1019.7 999.8
03 13.12 СВ 2 н/о слабый снег 10/10 200 м
[Frnb Ns]
-0.2 -1.1 94 -4 -4 по сезону 1019.5 999.6 -0.3 1
06 13.12 СВ 2 4000 м слабый снег 10/10 300 м
[Frnb Ns]
-0.5 -1.1 96 -4 -4 по сезону 1020.6 1000.7 -0.5 3 15
09 13.12 СВ 1 4000 м слабый снег 10/10 300 м
[Frnb Ns]
-0.3 -1.5 92 -2 -2 тепло 1021.9 1001.9
12 13.12 В 1 4000 м слабый снег 10/10 300 м
[Frnb Ns]
-0.8 -1.8 93 -3 -3 по сезону 1022.7 1002.7
15 13.12 В 1 н/о в посл. час снег 10/10 300 м
[Sc]
-1.1 -2.9 88 -3 -3 по сезону 1024.3 1004.2 4
18 13.12 В 1 н/о слабый снег 10/10 300 м
[Frnb]
-1.8 -3.2 90 -4 -4 по сезону 1025.4 1005.3 -0.3 3
21 13.12 В 1 н/о слабый снег 10/10 600 м
[Sc]
-2.0 -3.8 87 -4 -4 по сезону 1026.7 1006.5
00 14.12 СВ 1 н/о слабый снег 10/10 300 м
[Frnb]
-2.2 -3.7 89 -4 -4 по сезону 1027.3 1007.1
03 14.12 СВ 1 н/о слабый снег 10/10 300 м
[Sc]
-2.1 -3.5 90 -4 -4 по сезону 1027.5 1007.3 -2.2 0.6
06 14.12 СВ 1 4000 м дымка {снег} 10/10 200 м
[Frnb]
-2.0 -3.4 90 -4 -4 по сезону 1028.0 1007.8 -2.2 0.3 18
09 14.12 СВ 2 4000 м слабый снег 10/10 200 м
[Frnb]
-1.9 -3.1 91 -6 -6 по сезону 1028.4 1008.2
12 14.12 СВ 1 4000 м дымка {снег} 10/10 200 м
[St]
-1.7 -3.2 89 -4 -4 по сезону 1028.8 1008.6
15 14.12 СВ 1 н/о дымка 10/10 200 м
[St]
-1.8 -3.0 91 -4 -4 по сезону 1029.4 1009.2 0.0
18 14.12 С 2 н/о дымка {снег} 10/10 300 м
[Frnb]
-2.1 -3.4 91 -6 -6 по сезону 1030.0 1009.7 -1.5 0.0
21 14.12 С 2 н/о дымка 10/10 200 м
[Frnb]
-2.5 -3.6 92 -7 -7 по сезону 1030.5 1010.2
00 15.12 С 2 н/о дымка 10/10 200 м
[Frnb]
-2.9 -4.1 91 -7 -7 по сезону 1031.3 1011.0
03 15.12 С 2 н/о дымка 10/10 300 м
[Frnb]
-3.2 -4.8 89 -7 -7 по сезону 1031.7 1011.4 -3.2 0.0
06 15.12 С 1 4000 м дымка 10/10 200 м
[St]
-3.5 -4.7 91 -6 -6 по сезону 1032.3 1011.9 -3.5 17
09 15.12 С 3 4000 м дымка 10/10 300 м
[Frnb]
-3.8 -5.3 89 -9 -9 по сезону 1033.7 1013.3
12 15.12 С 2 4000 м дымка 10/10 600 м
[Sc]
-4.9 -5.8 93 -9 -9 по сезону 1034.8 1014.2
15 15.12 С 2 н/о дымка 10/10 300 м
[Frnb]
-6.2 -7.2 93 -11 -11 прохладно 1036.3 1015.6

 

Местоположение метеостанции Москва (город Москва, Россия): широта 55.83 долгота 37.62 высота над уровнем моря 156 м.

В архиве по умолчанию представлена погода в Москве за последнюю неделю. Архивные данные за месяц целиком и за предыдущие месяцы, начиная с января 2011 года, Вы можете получить, выбрав интересующий диапазон дат из раскрывающегося списка и нажав кнопку "Ввод!".


*Определитесь, кто Вы:
робот инопланетянин человек

Внимание! Время в таблицах - всемирное. Для получения местного времени необходимо прибавить поправку, которая в Москве равна 3 ч.

Смотрите также архив погоды в соседних городах и на ближайших метеорологических станциях:

Погода в Москве (Балчуг) (город Москва, Россия) (9 км)
Погода в Москве (Тушино) (город Москва, Россия) (12 км)
Погода в Долгопрудном (Московская область, Россия) (13 км)
Погода в Москве (Строгино) (город Москва, Россия) (14 км)
Погода в Красногорске (Московская область, Россия) (18 км)
Погода в Шереметьево (Московская область, Россия) (20 км)
Погода в Немчиновке (город Москва, Россия) (21 км)
Погода в Железнодорожном АМС (Московская область, Россия) (23 км)
Погода в Луговой (Московская область, Россия) (26 км)
Погода в Пушкино (Московская область, Россия) (26 км)

Пояснения к столбцам:

Ветер - указаны скорость ветра в м/с - средняя за 10 мин, порывы в срок и между сроками (в фигурных скобках) и направление, откуда дует ветер: С - северный, СВ - северо-восточный, В - восточный, ЮВ - юго-восточный, Ю - южный, ЮЗ - юго-западный, З - западный, СЗ - северо-западный.
Видимость - горизонтальная дальность видимости в метрах или километрах. При видимости от 1 до 10 км при отсутствии осадков обычно наблюдается дымка, при ухудшении видимости до 1 км и менее - туман. В сухую погоду видимость может ухудшаться дымом, пылью или мглою.
Явления - указаны атмосферные явления, наблюдавшиеся в срок или в последний час перед сроком; фигурными скобками обозначены явления, наблюдавшиеся между сроками (за 1-3 часа до срока); квадратными скобками обозначены град или гололедные отложения с указанием их диаметра в мм.
Облачность - указаны через наклонную черту общая и нижняя облачность в баллах и высота нижней границы облаков в метрах; квадратными скобками обозначены формы облаков: Ci - перистые, Cs - перисто-слоистые, Cc - перисто-кучевые, Ac - высококучевые, As - высокослоистые, Sc - слоисто-кучевые, Ns - слоисто-дождевые, Cu - кучевые, Cb - кучево-дождевые. Подробнее классификацию облаков см. в Атласе облаков (PDF).
T - Температура воздуха - температура, измеренная на высоте 2 м над землей.
Td - Температура точки росы - температура, при понижении до которой содержащийся в воздухе водяной пар достигнет насыщения.
f - Относительная влажность воздуха - влажноcть воздуха, измеренная на высоте 2 м над землей.
Te - Эффективная температура - температура, которую ощущает одетый по сезону человек в тени. Характеристика душности погоды. При расчете учитывается влияние влажности воздуха и скорости ветра на теплоощущения человека.
Tes - Эффективная температура на солнце - температура, которую ощущает человек, с поправкой на солнечный нагрев. Характеристика знойности погоды. Зависит от высоты солнца над горизонтом, облачности и скорости ветра. Ночью, в пасмурную погоду, а также при ветре 12 м/с и более поправка равна нулю.
P - Атмосферное давление - приведенное к уровню моря атмосферное давление.
Po - Атмосферное давление - измеренное на уровне метеостанции атмосферное давление.
Tmin - Минимальная температура - минимум температуры воздуха на высоте 2 м над землей.
Tmax - Максимальная температура - максимум температуры воздуха на высоте 2 м над землей.
R - Количество осадков - Количество выпавших осадков за период времени, мм. При наведении курсора мыши на число - период времени, за который выпало указанное количество осадков.
R24 - Количество осадков - Количество выпавших осадков за 24 часа, мм.
S - Снежный покров - Высота снежного покрова, см. При наведении курсора мыши на число - состояние снежного покрова и степень покрытия местности в баллах.